Regional Weather Roundup
Issued by NWS

Home | Current Version | Previous Version | Text Only | Print | Product List | Glossary On
Versions: 1 2 3 4 5 6 7 8 9 10 11 12 13 14 15 16 17 18 19 20 21 22 23 24 25 26 27 28 29 30 31 32 33 34 35 36 37 38 39 40 41 42 43 44 45 46 47 48 49 50
000
ASUS43 KDMX 202006
RWRIA

WEATHER ROUNDUP FOR IOWA
NATIONAL WEATHER SERVICE DES MOINES IA
300 PM CDT FRI OCT 20 2017

NOTE: "FAIR" INDICATES FEW OR NO CLOUDS BELOW 12,000 FEET WITH NO
SIGNIFICANT WEATHER AND/OR OBSTRUCTIONS TO VISIBILITY.

* - THESE STATIONS ARE NOT NWS STATIONS...THUS NOT UNDER NWS
QUALITY CONTROL.  THEY ALSO DO NOT REPORT WEATHER SUCH
AS PRECIPITATION OR FOG.

IAZ001>003-012>014-020>022-031>034-043>046-202100-
   NORTHWEST IOWA

CITY           SKY/WX    TMP DP  RH WIND       PRES   REMARKS
CHEROKEE *     CLOUDY    75  55  49 S23G30    29.73F
DENISON *      SUNNY     75  55  50 MISG      29.79F
LE MARS *      SUNNY     77  55  47 S24G32    29.69F
ORANGE CITY *  SUNNY     77  57  50 S21G31    29.69F
SHELDON *      SUNNY     77  54  44 S21G31    29.69F
SIOUX CITY     MOSUNNY   76  57  51 S17G30    29.70F
SPENCER        SUNNY     76  54  46 S26G36    29.74F
STORM LAKE *   MOSUNNY   75  54  46 S25G36    29.76F
$$

IAZ055>058-069>071-079>083-090>094-202100-
   SOUTHWEST IOWA

CITY           SKY/WX    TMP DP  RH WIND       PRES   REMARKS
ATLANTIC *     CLOUDY    75  55  50 S18G30    29.81F
CLARINDA *     SUNNY     77  57  50 S21G28    29.85F
COUNCIL BLFS * CLOUDY    75  61  60 S25G33    29.77F
CRESTON *      MOSUNNY   72  55  56 S15G28    29.88F
HARLAN  *      SUNNY     73  57  56 S21G33    29.82F
LAMONI         LGT RAIN  72  55  55 S17G25    29.92F
RED OAK *      MOSUNNY   77  57  50 S21G36    29.81F
SHENANDOAH *   MOSUNNY   77  57  50 S26G37    29.81F
$$

IAZ047>049-059>061-072>074-084-202100-
   CENTRAL IOWA

CITY           SKY/WX    TMP DP  RH WIND       PRES   REMARKS
AMES           SUNNY     74  55  51 S20       29.87F
ANKENY *       SUNNY     73  54  49 S16G26    29.89F
BOONE *        SUNNY     75  54  46 S20G28    29.86F
CHARITON *     SUNNY     73  52  46 S17G29    29.93F
DES MOINES     CLOUDY    75  53  46 S17       29.89F
GRINNELL*      SUNNY     74  49  41 S16G22    29.95F
KNOXVILLE *    SUNNY     73  50  43 S20       29.92F
MARSHALLTOWN   SUNNY     74  51  44 S21       29.90F
NEWTON *       SUNNY     75  52  43 S25G31    29.92F
PELLA *        SUNNY     75  50  40 S12       29.95F
PERRY *          N/A     76  49  39 S23G31    29.85F
$$

IAZ004>006-015-016-023>025-035-036-202100-
   NORTH CENTRAL IOWA

CITY           SKY/WX    TMP DP  RH WIND       PRES   REMARKS
ALGONA *       SUNNY     75  52  43 S23G30    29.80F
CLARION *      SUNNY     75  52  43 S23G31    29.84F
ESTHERVILLE    SUNNY     74  53  48 S28G40    29.75F
FORT DODGE *   CLOUDY    75  52  44 S22       29.82F
MASON CITY     CLOUDY    75  49  39 S22G32    29.86F
FOREST CITY *    N/A     73  52  46 S20G28    29.84F
WEBSTER CITY * CLOUDY    77  52  41 S20G28    29.82F
IOWA FALLS *     N/A     75  52  45 S20G28    29.89F
$$

IAZ007>011-017>019-026>030-037>042-050>054-066-202100-
   NORTHEAST IOWA

CITY           SKY/WX    TMP DP  RH WIND       PRES   REMARKS
CEDAR RAPIDS   CLOUDY    74  47  38 S13G25    29.96F
CHARLES CITY * MOSUNNY   75  41  29 S15G28    29.90F
CLINTON *      CLOUDY    77  50  38 S10       30.01F
DECORAH *      CLOUDY    75  45  33 S10G21    29.91F
DUBUQUE        MOSUNNY   74  48  39 S12       29.99F
MONTICELLO *   CLOUDY    75  50  41 S14G21    29.97F
OELWEIN *      CLOUDY    73  46  38 S22       29.94F
WATERLOO       CLOUDY    73  47  39 S21G29    29.91F
$$

IAZ064-065-067-068-078-202100-
   EAST CENTRAL IOWA

CITY           SKY/WX    TMP DP  RH WIND       PRES   REMARKS
DAVENPORT      SUNNY     77  47  34 S10       30.02F
IOWA CITY      CLOUDY    77  49  37 S14       29.98F
MUSCATINE *    CLOUDY    77  48  36 S16       29.99F
QUAD CITIES    CLOUDY    78  48  34 S10       29.99F
$$

IAZ062-063-075>077-085>089-095>099-202100-
   SOUTHEAST IOWA

CITY           SKY/WX    TMP DP  RH WIND       PRES   REMARKS
BURLINGTON     CLOUDY    75  51  43 S13       30.01F
FAIRFIELD *    SUNNY     73  48  40 S20G26    29.98F
FORT MADISON * MOSUNNY   75  50  41 S14       30.02F
KEOKUK *       CLOUDY    73  52  46 S9G17     30.01F
OSKALOOSA *      N/A     74  51  44 S18       29.97F
OTTUMWA        SUNNY     74  51  44 S18G25    29.97F
WASHINGTON *   SUNNY     75  50  41 S18G25    29.99F
$$

ABBREVIATIONS USED IN REMARKS
   TC - TEMPERATURES IN CELSIUS
  WCI - WIND CHILL INDEX
   HX - HEAT INDEX
  VSB - VISIBILITY
$$




USA.gov is the U.S. government's official web portal to all federal, state and local government web resources and services.